Regional Weather Roundup
Issued by NWS Sioux Falls, SD

Home | Current Version | Previous Version | Text Only | Print | Product List | Glossary On
Versions: 1 2 3 4 5 6 7 8 9 10 11 12 13 14 15 16 17 18 19 20 21 22 23 24 25 26 27 28 29 30 31 32 33 34 35 36 37 38 39 40 41 42 43 44 45 46 47 48 49 50
000
ASUS43 KFSD 032110
RWRFSD

WEATHER ROUNDUP FOR SE SOUTH DAKOTA/SW MINNESOTA/NW IOWA
NATIONAL WEATHER SERVICE SIOUX FALLS SD
400 PM CDT THU SEP 03 2015

NOTE: "FAIR" INDICATES FEW OR NO CLOUDS BELOW 12,000 FEET WITH NO
SIGNIFICANT WEATHER AND OR OBSTRUCTIONS TO VISIBILITY.


SDZ038>040-050-052>070-032200-
SOUTHEAST SOUTH DAKOTA

CITY           SKY/WX    TMP DP  RH WIND       PRES   REMARKS
BROOKINGS      SUNNY     88  70  55 SE14G20   29.82F
CHAMBERLAIN    SUNNY     91  70  50 SE8       29.73F HX  95
HURON          SUNNY     91  70  49 SE15      29.73F HX  96
MADISON        FAIR      84  73  70 SE13G21   29.81F
MITCHELL       SUNNY     91  72  53 SE16      29.75F HX  98
SIOUX FALLS    MOSUNNY   86  70  58 SE12      29.79F
WINNER         FAIR     100  49  17 SE18      29.73F HX  97
YANKTON        SUNNY     88  73  62 SE14      29.75F HX  96
$$

MNZ071-072-080-081-089-090-097-098-032200-
SOUTHWEST MINNESOTA

CITY           SKY/WX    TMP DP  RH WIND       PRES   REMARKS
FAIRMONT       SUNNY     88  64  45 SE12      29.83F
JACKSON        SUNNY     88  73  62 SE12      29.85F HX  96
LUVERNE        SUNNY     88  70  55 SE13      29.82F
MARSHALL       SUNNY     90  72  55 SE14G20   29.82F HX  96
MONTEVIDEO     SUNNY     91  75  59 S9        29.82F HX 102
PIPESTONE      SUNNY     88  70  55 S12       29.83F
REDWOOD FALLS  SUNNY     89  74  60 SE10      29.81F HX  98
TRACY          SUNNY     89  75  63 SE10      29.83S HX  99
WINDOM         SUNNY     90  72  55 SE12      29.84S HX  96
WORTHINGTON    SUNNY     86  72  62 SE12G17   29.83F
$$

IAZ001>003-012>014-020>022-031-032-NEZ013-014-SDZ071-032200-
NORTHWEST IOWA

CITY           SKY/WX    TMP DP  RH WIND       PRES   REMARKS
CHEROKEE       SUNNY     87  74  65 S13       29.82F HX  95
DENISON        SUNNY     86  73  66 S12G18    29.81F
ESTHERVILLE    SUNNY     86  73  65 SE14      29.84F
LE MARS        SUNNY     88  73  62 SE9       29.81F HX  96
ORANGE CITY    SUNNY     88  73  62 SE10      29.82F HX  96
SHELDON        SUNNY     86  73  66 SE12G18   29.82S
SIOUX CITY     SUNNY     88  70  55 S15       29.79F
SPENCER        MOSUNNY   87  72  60 SE13      29.83F
STORM LAKE     SUNNY     86  73  66 S14       29.85S
$$

ABBREVIATIONS USED IN REMARKS
   TC - TEMPERATURE IN CELSIUS
  WCI - WIND CHILL INDEX
   HX - HEAT INDEX
  VSB - VISIBILITY



USA.gov is the U.S. government's official web portal to all federal, state and local government web resources and services.